    Orbital elements:
    2011 MT                                                  Earth MOID = 0.2877 AU
    Epoch 2011 Aug. 27.0 TT = JDT 2455800.5                 MPC
    M  15.52230              (2000.0)            P               Q
    n   0.18557498     Peri.  343.99042     -0.09502400     +0.96825807
    a   3.0440826      Node   280.11969     -0.88563199     -0.18827315
    e   0.5736296      Incl.   13.58213     -0.45456180     +0.16440662
    P   5.31           H   19.5           G   0.15           U   7
    Residuals in seconds of arc
    110622 G96  0.4+  1.0-    110623 D35  0.2+  0.1+    110623 D35  0.3-  0.8-
    110622 G96  0.4+  0.9-    110623 D35  0.2+  0.2-    110623 D35  1.6-  0.6-
    110622 G96  0.5+  1.1-    110623 D35  0.1+  0.0     110623 D35  1.4-  1.2+
    110622 G96  0.6+  1.1-    110623 D35  0.1+  0.1+    110623 D35  0.3-  0.9+
    110622 703  1.1+  1.2+    110623 D35  0.3+  0.0     110623 D35  0.2+  0.2-
    110622 703  1.0-  1.9+    110623 D35  0.0   0.0     110624 807  0.2+  0.1-
    110622 703  1.5-  1.6+    110623 D35  0.2+  0.1+    110624 807  0.4+  0.1-
    110622 703  1.5-  1.3+    110623 D35  0.1+  0.0     110624 807  0.3+  0.1-
    110622 E12  0.5-  0.7-    110623 D35  0.2+  0.1-    110624 H36  0.3+  0.3+
    110622 E12  0.0   1.0-    110623 D35  0.1+  0.0     110624 H36  0.3+  0.0
    110622 E12  0.6+  0.1-    110623 D35  0.1+  0.1+    110624 H36  0.5+  0.2-
    110623 H36  0.5+  0.6-    110623 D35  0.2+  0.1+    110625 807  0.4+  0.1-
    110623 H36  0.2+  0.6-    110623 D35  0.1+  0.1+    110625 807  0.3+  0.1-
    110623 H36  0.0   0.5-    110623 D35  0.1+  0.1-    110625 807  0.2+  0.1-
    110623 291  0.1-  0.0     110623 D35  0.2+  0.1-    110625 807  0.2+  0.0
    110623 291  0.3-  0.1+    110623 D35  0.4+  0.2+    110625 807  0.3+  0.1-
    110623 291  0.2-  0.1+    110623 D35  0.1+  0.2-    110625 691  0.1+  0.0
    110623 D35  0.1+  0.2-    110623 D35  0.3+  0.0     110625 691  0.1+  0.1+
    110623 D35  0.2+  0.2-    110623 D35  0.1-  0.0     110625 691  0.1+  0.5-
    110623 D35  0.2+  0.0     110623 D35  0.0   0.2-    110625 291  0.2-  0.4+
    110623 D35  0.1+  0.1-    110623 D35  0.0   0.1+    110625 291  0.3-  0.3+
    110623 D35  0.2+  0.0     110623 D35  0.4+  0.0     110625 291  0.7-  0.2-
    110623 D35  0.2+  0.1-    110623 D35  0.1+  0.0     110625 H01  0.2+  0.0
    110623 D35  0.1+  0.0     110623 D35  0.3+  0.1+    110625 H01  0.2+  0.1+
    110623 D35  0.2+  0.3-    110623 D35  0.1+  0.1+    110625 H01  0.2+  0.0
    110623 D35  0.1+  0.1+    110623 D35  0.3+  0.7+    110625 H01  0.2+  0.0
    
    Ephemeris:
    2011 MT                  a,e,i = 3.04, 0.57, 14                  q = 1.2979
    Date    TT    R. A. (2000) Decl.     Delta      r     Elong.  Phase     V
    2011 05 26    19 52 43.2 -39 17 37   0.3989  1.3023   129.2    37.1    19.6
    ...
    2011 06 10    20 21 24.9 -29 22 50   0.3572  1.2995   137.0    32.2    19.2
    ...
    2011 06 18    20 29 15.8 -23 16 38   0.3467  1.3072   142.2    28.5    19.0
    ...
    2011 06 24    20 32 08.4 -18 37 27   0.3447  1.3171   146.3    25.4    18.9
    2011 06 25    20 32 23.6 -17 51 27   0.3449  1.3191   147.0    24.8    18.9
    2011 06 26    20 32 35.2 -17 05 44   0.3452  1.3212   147.7    24.3    18.9
    ...
    2011 07 02    20 32 35.9 -12 40 33   0.3502  1.3355   151.8    21.1    18.9
    ...
    2011 07 10    20 30 14.5 -07 23 36   0.3653  1.3596   156.5    17.3    18.9
    ...
    2011 07 25    20 22 36.1 -00 09 09   0.4198  1.4181   160.3    14.0    19.2
    
    A. U. Tomatic                (C) Copyright 2011 MPC           M.P.E.C. 2011-M33
    

    Read MPEC 2011-M32 Read MPEC 2011-M34


    MPEC number:

    Enter an MPEC number in one of the following forms:

    • 1997-B01 (the full form)
    • J97B01 (the packed version of the full form)
    • B01 (the abbreviated form)